Wind_Speed
12 12 12 14 17 19 20 21 23 24 25 26 26 26 26 26 25 24 23 22 22 21 20 20 20 20 20 20 21 22 23 25 27 29 28 26 25 23 22 20 19 19 20
9 10 12 15 18 20 22 23 24 25 26 27 27 27 26 25 24 23 22 22 21 21 20 20 19 18 18 18 20 21 22 24 26 28 30 28 28 28 26 24 22 22 22
10 13 15 17 19 20 22 23 24 24 25 25 25 24 24 23 23 22 22 22 21 21 20 19 19 19 19 19 18 20 20 22 24 27 30 30 30 30 29 27 26 25 24
12 15 18 19 20 20 21 22 22 22 23 22 23 23 22 22 21 21 21 21 21 21 21 20 20 19 19 18 18 19 20 21 24 25 28 30 32 33 33 32 31 30 28
15 16 18 18 18 18 18 18 18 19 20 21 21 22 22 22 22 21 21 21 22 22 22 22 21 21 20 19 19 19 20 21 22 24 27 29 30 32 34 35 35 33 31
14 15 16 16 16 15 15 16 17 18 20 21 22 22 22 22 22 22 21 21 22 22 22 22 22 22 22 21 21 21 21 21 22 23 24 26 28 30 34 36 37 36 35
12 13 15 15 15 15 16 16 17 19 20 21 21 22 22 23 23 22 22 22 22 22 22 22 22 22 22 22 22 22 22 22 22 23 23 24 25 27 30 33 36 37 37
13 14 16 16 17 17 18 18 18 19 20 21 22 22 22 23 23 23 22 22 22 22 22 22 22 22 21 21 22 22 22 23 24 24 24 24 24 25 27 31 34 37 38
13 14 16 16 17 18 18 19 19 19 20 21 21 21 21 21 22 21 21 21 21 21 21 21 21 22 21 21 22 22 22 22 23 23 23 23 23 24 24 26 30 33 36
14 15 16 17 18 18 19 19 19 19 20 20 20 20 19 19 19 20 20 20 20 20 20 21 21 21 21 22 22 22 22 22 22 23 23 23 23 23 23 23 24 26 29
16 17 17 18 18 19 20 20 20 19 19 19 19 19 18 19 19 20 20 20 21 21 21 22 22 21 22 22 22 22 22 22 23 23 24 24 24 24 23 23 23 24 25
17 17 18 18 19 19 19 19 18 18 18 17 17 18 18 19 19 20 21 21 22 23 23 23 24 23 23 22 22 22 21 21 22 23 24 24 25 25 25 25 25 26 26
17 18 18 18 18 18 17 17 16 16 15 15 15 15 15 16 17 18 20 21 22 23 24 24 24 24 24 24 23 23 22 21 22 23 23 24 25 25 26 26 27 28 28
17 17 17 17 17 16 16 15 15 14 13 13 12 13 13 15 16 17 18 19 20 20 21 21 22 23 24 24 24 23 22 21 21 22 23 24 25 26 27 27 28 29 30
18 17 17 17 17 16 16 15 14 13 13 12 11 12 13 13 13 14 14 14 14 15 16 17 18 19 20 21 21 22 21 21 21 21 22 24 25 26 27 27 28 28 29
18 19 19 19 19 18 18 17 16 15 14 13 13 12 12 12 12 12 12 11 9 8 8 9 11 13 14 15 16 17 18 18 19 20 20 21 22 24 25 26 27 28 29
19 19 20 20 21 21 20 19 18 17 16 15 15 14 14 14 13 13 12 11 9 6 4 1 2 4 7 8 10 11 12 13 15 16 17 18 20 21 22 24 25 27 28
19 19 20 21 22 23 23 22 22 20 19 18 18 17 17 17 17 16 16 15 13 11 9 7 6 4 3 3 3 4 6 8 11 13 14 16 17 19 20 22 23 25 27
18 19 20 21 23 24 24 24 24 23 22 22 21 21 20 20 20 19 19 19 18 16 14 13 11 9 7 5 3 2 4 6 8 10 11 13 15 16 19 21 23 25 27
17 18 19 20 21 22 23 24 24 24 23 23 23 23 23 22 22 22 22 22 22 21 19 17 16 14 12 10 8 7 7 7 8 10 11 13 15 17 19 21 23 25 27
15 16 17 18 19 20 21 22 23 23 23 23 23 23 23 23 23 23 23 23 23 22 22 20 19 18 16 15 14 13 12 12 12 12 12 13 15 16 18 19 21 23 24
14 15 16 17 18 18 19 19 20 21 22 23 23 23 23 24 24 24 24 24 23 23 22 22 21 20 19 18 17 16 16 15 15 15 15 15 16 16 17 18 19 20 21
12 14 15 16 17 17 17 18 18 19 20 21 22 22 22 22 22 23 23 23 22 22 22 22 21 21 20 20 19 19 19 19 18 18 18 18 19 19 18 18 18 19 19
11 12 14 15 16 16 17 17 17 17 18 18 19 19 20 20 20 20 21 21 21 21 21 21 21 21 21 21 21 21 20 20 20 20 20 21 21 21 21 20 20 20 20
9 10 12 13 15 15 16 16 16 16 17 17 17 17 17 18 18 19 19 19 20 20 20 21 21 21 21 21 21 21 21 21 22 22 23 23 24 24 23 22 22 22 22
7 8 9 11 13 14 15 15 15 15 16 16 15 15 15 15 16 16 17 17 18 19 19 20 20 20 20 20 21 21 22 22 23 23 24 25 25 26 26 25 25 24 24
Wind_Direction
240 247 253 261 272 281 285 288 290 289 289 291 292 292 292 289 286 284 283 283 279 276 274 271 267 266 256 249 245 243 240 239 237 236 237 238 237 238 239 240 241 240 238
241 255 268 276 283 286 288 288 290 289 288 289 289 290 290 288 284 282 280 279 277 273 271 269 267 264 261 256 247 244 244 240 238 237 236 237 237 238 239 240 242 243 243
257 271 279 283 286 287 286 286 285 285 285 286 287 288 286 285 283 280 278 276 274 271 268 267 265 261 258 255 252 248 245 242 240 240 238 239 239 239 238 239 242 244 245
272 279 283 285 289 289 285 286 284 282 281 281 283 285 285 284 283 281 277 275 273 270 266 264 262 259 258 255 254 251 248 247 246 245 242 242 243 240 239 241 243 245 246
282 288 289 291 292 293 288 288 284 281 279 279 280 283 285 284 283 282 280 277 274 271 267 263 261 259 257 256 254 253 251 251 250 250 247 246 246 242 241 242 243 245 246
288 292 294 296 299 296 293 290 286 283 281 280 281 283 285 285 283 282 280 278 275 272 269 264 261 260 258 257 255 253 253 252 252 250 249 248 248 246 247 246 245 245 246
301 303 303 303 303 300 297 293 289 287 284 284 284 285 285 284 283 281 279 277 275 272 269 265 261 258 258 257 256 254 252 252 251 250 252 250 250 249 249 248 247 247 249
309 309 309 306 305 303 300 297 293 290 288 286 286 285 284 283 283 281 279 276 275 271 268 266 263 259 257 256 255 254 252 251 251 251 252 251 252 253 253 250 248 249 250
316 313 311 310 307 305 302 298 295 291 289 287 287 286 284 283 282 281 278 276 274 271 267 265 264 261 258 257 255 254 252 251 251 252 253 252 252 253 253 252 250 249 249
319 316 313 310 307 304 301 298 295 292 291 289 287 284 282 281 281 280 278 275 273 270 268 266 264 262 260 258 257 256 255 253 252 252 252 253 252 253 254 254 253 252 251
323 320 316 312 309 307 305 302 299 295 292 290 286 283 281 279 278 277 276 274 272 270 268 266 264 263 262 261 259 257 256 254 252 251 251 253 252 252 253 254 254 253 252
331 328 324 321 318 316 313 310 306 301 296 293 290 287 284 282 280 279 277 274 272 270 269 266 263 261 260 260 259 258 257 255 253 252 252 252 253 253 252 253 253 253 253
342 339 336 333 331 328 324 320 316 311 306 301 298 295 293 291 288 285 281 277 273 269 267 265 262 258 256 256 256 255 256 256 256 254 253 253 253 253 253 254 255 256 256
354 353 352 350 348 344 340 336 332 328 323 318 312 309 307 305 303 299 292 285 279 273 268 265 261 256 253 252 250 251 254 257 257 256 255 255 255 255 256 257 258 259 260
10 10 8 6 3 360 356 354 352 350 347 342 336 332 327 324 321 319 314 304 291 280 270 263 258 253 249 246 245 247 251 255 256 257 259 259 259 259 260 261 262 262 263
22 23 23 20 18 16 13 10 9 8 7 4 1 357 355 353 349 347 344 337 327 309 284 269 257 245 239 239 241 245 249 253 257 261 263 262 262 263 262 262 264 265 266
31 31 30 29 27 25 25 25 25 25 24 21 19 19 18 19 18 17 15 12 10 5 360 336 223 218 222 229 237 244 252 256 260 264 265 267 268 268 268 269 269 269 270
35 35 34 33 33 34 34 35 36 36 36 35 35 35 35 36 36 36 36 38 41 47 54 66 84 98 125 178 221 248 265 268 271 272 274 274 275 276 277 277 275 275 275
37 38 37 37 38 38 39 40 41 42 43 43 44 43 43 44 45 46 47 48 51 57 62 66 72 71 69 68 52 5 327 313 304 299 297 294 292 291 288 287 285 283 282
37 38 38 39 40 41 41 42 43 44 44 45 46 47 48 49 50 51 52 54 56 59 63 65 65 64 60 54 43 26 7 352 337 327 320 313 307 303 300 297 294 292 289
34 35 36 36 38 39 40 40 42 43 45 46 47 49 50 51 52 53 54 56 57 59 60 61 59 57 55 52 46 37 27 15 3 351 341 333 326 320 315 310 306 302 299
32 33 33 33 35 37 38 39 40 42 45 46 48 50 51 52 53 54 55 57 58 58 59 58 56 53 51 47 42 36 30 24 17 10 3 356 349 342 335 329 324 319 315
32 33 33 33 34 35 36 36 38 40 42 45 47 48 50 51 52 53 54 55 55 55 55 54 52 50 49 46 44 40 36 33 28 23 17 11 5 359 353 348 343 339 334
31 34 35 34 34 34 34 35 36 37 38 40 42 43 45 46 47 48 49 50 50 51 50 50 50 49 48 47 44 42 38 35 31 26 23 19 15 11 8 4 360 355 350
27 33 35 34 34 34 34 33 34 35 36 36 37 38 40 41 41 42 42 44 45 45 45 45 46 45 43 42 42 40 38 36 33 31 29 26 23 21 18 14 10 6 3
16 23 28 31 32 32 31 30 30 31 31 32 31 31 32 34 34 34 35 36 37 37 37 38 38 38 38 38 39 38 37 36 34 32 31 30 28 27 24 22 19 16 13
Height
5788 5791 5793 5795 5797 5798 5798 5799 5799 5798 5798 5797 5796 5796 5795 5794 5793 5792 5791 5790 5789 5789 5788 5788 5788 5788 5788 5790 5792 5794 5796 5799 5802 5805 5808 5811 5813 5815 5817 5819 5821 5823 5825
5787 5789 5791 5792 5793 5794 5794 5794 5794 5793 5793 5792 5791 5789 5789 5788 5787 5786 5785 5784 5784 5784 5783 5783 5783 5783 5784 5785 5787 5789 5791 5793 5796 5799 5802 5805 5807 5810 5813 5815 5817 5819 5820
5787 5789 5790 5790 5790 5790 5789 5789 5788 5788 5787 5786 5785 5783 5782 5781 5780 5780 5779 5779 5779 5778 5778 5778 5778 5779 5780 5781 5782 5784 5785 5787 5790 5792 5795 5798 5801 5804 5807 5809 5811 5813 5815
5786 5787 5787 5787 5786 5785 5785 5784 5783 5782 5781 5780 5779 5778 5776 5775 5774 5774 5773 5773 5773 5773 5773 5773 5773 5774 5775 5776 5777 5778 5780 5782 5784 5786 5788 5791 5794 5797 5800 5803 5805 5807 5810
5784 5784 5783 5783 5782 5781 5780 5778 5777 5777 5776 5775 5773 5772 5770 5769 5768 5767 5767 5767 5767 5767 5767 5767 5768 5769 5769 5770 5771 5773 5774 5776 5778 5780 5782 5784 5786 5789 5793 5795 5798 5800 5803
5780 5780 5780 5779 5778 5776 5775 5774 5772 5771 5770 5769 5768 5766 5764 5763 5762 5761 5761 5760 5760 5760 5761 5761 5762 5763 5764 5765 5766 5767 5769 5770 5772 5773 5775 5777 5779 5781 5784 5787 5789 5793 5795
5778 5777 5776 5775 5773 5772 5770 5769 5767 5766 5764 5763 5761 5760 5758 5757 5756 5755 5754 5754 5754 5754 5754 5755 5755 5756 5757 5758 5760 5761 5762 5764 5765 5767 5768 5770 5772 5774 5776 5778 5781 5784 5786
5775 5774 5772 5771 5769 5767 5765 5764 5762 5760 5759 5757 5755 5754 5752 5751 5749 5748 5748 5748 5747 5747 5748 5748 5749 5750 5751 5752 5753 5755 5756 5758 5759 5761 5762 5763 5765 5766 5768 5770 5772 5774 5777
5772 5771 5769 5767 5765 5763 5761 5759 5757 5755 5753 5751 5749 5748 5746 5745 5743 5742 5742 5741 5741 5741 5741 5742 5742 5743 5744 5745 5747 5748 5749 5751 5752 5754 5755 5757 5758 5759 5761 5762 5764 5766 5768
5769 5767 5765 5763 5760 5758 5756 5754 5751 5749 5747 5745 5743 5742 5740 5739 5738 5737 5736 5735 5735 5735 5735 5735 5736 5736 5737 5738 5740 5741 5743 5744 5746 5747 5749 5750 5751 5753 5754 5755 5756 5758 5759
5766 5763 5761 5758 5756 5753 5750 5748 5745 5743 5741 5739 5737 5736 5734 5733 5732 5731 5730 5729 5728 5728 5728 5728 5729 5730 5731 5732 5733 5735 5736 5737 5739 5740 5742 5743 5745 5746 5747 5748 5749 5751 5752
5762 5759 5757 5754 5750 5747 5744 5742 5739 5737 5735 5733 5731 5730 5728 5727 5725 5724 5723 5722 5721 5721 5721 5721 5722 5722 5724 5725 5726 5728 5729 5731 5732 5733 5735 5736 5738 5739 5740 5741 5742 5743 5744
5759 5756 5753 5750 5746 5743 5740 5737 5735 5732 5730 5728 5726 5724 5723 5721 5719 5717 5716 5714 5713 5712 5712 5713 5713 5714 5716 5717 5719 5721 5722 5724 5726 5727 5728 5730 5731 5732 5733 5734 5735 5736 5737
5758 5754 5751 5747 5744 5741 5738 5735 5732 5729 5726 5724 5722 5720 5718 5716 5714 5711 5708 5706 5704 5704 5703 5704 5705 5706 5708 5710 5712 5714 5716 5718 5719 5721 5722 5723 5724 5725 5726 5727 5727 5728 5729
5758 5754 5751 5748 5744 5741 5737 5734 5730 5727 5724 5722 5719 5717 5715 5712 5709 5706 5703 5700 5698 5696 5696 5696 5697 5698 5700 5703 5705 5708 5710 5712 5713 5715 5716 5716 5717 5718 5719 5719 5720 5720 5721
5760 5756 5753 5749 5746 5742 5738 5734 5730 5727 5724 5721 5718 5715 5712 5710 5706 5703 5700 5697 5694 5693 5692 5691 5692 5693 5696 5698 5701 5703 5705 5707 5708 5709 5710 5710 5711 5711 5712 5712 5712 5712 5712
5762 5759 5756 5752 5748 5744 5740 5736 5732 5728 5725 5722 5719 5716 5713 5710 5707 5703 5700 5697 5694 5692 5691 5691 5691 5692 5694 5696 5698 5700 5702 5703 5704 5705 5705 5705 5705 5705 5705 5705 5704 5704 5704
5766 5763 5760 5756 5752 5748 5743 5739 5735 5731 5728 5725 5722 5719 5715 5712 5709 5706 5703 5699 5696 5694 5693 5693 5693 5694 5695 5697 5698 5699 5700 5701 5701 5701 5701 5700 5700 5699 5699 5698 5697 5696 5695
5770 5767 5764 5760 5756 5752 5748 5744 5740 5736 5733 5730 5726 5723 5720 5717 5713 5710 5707 5704 5701 5699 5698 5697 5697 5697 5698 5698 5699 5699 5699 5699 5699 5698 5697 5696 5695 5694 5693 5691 5690 5688 5687
5773 5770 5767 5764 5761 5757 5754 5750 5746 5742 5739 5735 5732 5728 5725 5722 5719 5716 5713 5710 5708 5705 5704 5702 5702 5701 5701 5701 5700 5700 5699 5698 5697 5696 5694 5693 5691 5689 5687 5685 5683 5681 5678
5776 5774 5771 5768 5765 5762 5758 5755 5751 5748 5745 5741 5738 5734 5731 5728 5725 5722 5720 5717 5714 5712 5710 5708 5707 5706 5705 5704 5702 5701 5700 5698 5696 5694 5692 5690 5688 5685 5682 5679 5676 5673 5670
5779 5777 5774 5771 5768 5765 5762 5759 5756 5753 5750 5747 5744 5740 5738 5735 5732 5729 5726 5723 5721 5718 5716 5714 5712 5710 5709 5707 5705 5703 5701 5699 5696 5694 5691 5688 5685 5682 5679 5675 5671 5668 5664
5781 5779 5777 5774 5771 5768 5766 5763 5760 5758 5755 5752 5749 5746 5743 5741 5738 5735 5732 5730 5727 5724 5722 5720 5718 5715 5713 5710 5708 5706 5703 5701 5698 5695 5691 5688 5684 5680 5676 5672 5668 5664 5660
5783 5781 5779 5776 5774 5771 5769 5766 5764 5761 5758 5756 5753 5751 5748 5746 5743 5740 5738 5735 5732 5730 5727 5725 5722 5720 5717 5715 5712 5709 5706 5703 5700 5696 5693 5689 5684 5680 5675 5671 5666 5662 5657
5785 5783 5781 5779 5776 5774 5771 5769 5767 5764 5762 5759 5757 5754 5752 5750 5747 5745 5742 5740 5737 5734 5732 5729 5727 5724 5721 5719 5716 5712 5709 5706 5702 5699 5695 5690 5686 5681 5676 5671 5666 5661 5656
5786 5784 5782 5780 5778 5776 5774 5771 5769 5767 5764 5762 5759 5757 5755 5753 5750 5748 5746 5743 5741 5738 5736 5733 5731 5728 5725 5722 5719 5715 5712 5709 5705 5701 5697 5692 5688 5683 5678 5672 5667 5662 5656